Pagina principale
METAR-TAF:

METAR-TAF

Aeroporti :

Athens, Tennessee, Stati Uniti

latitudine: 35-23-50N, longitudine: 084-33-45W, altezza: 262 m

Osservazione

Il bollettino è stato emesso 25 minuti fa, alle 14:15 UTC
Vento 3 kt da direzioni variabili
Temperature 6°C
Umidità 75%
Pressione 1024 hPa
Visibilità: 16.1 km
Nubi sparse ad un'altezza di 2900 ft

METAR: KMMI 181415Z AUTO VRB03KT 10SM SCT029 06/02 A3023 RMK A01

Ora: 08:40 (14:40 UTC)


TAF: mancante

Osservazioni e previsioni meteorologiche di più di 4000 aeroporti (messaggi METAR e TAF).

Le stazioni disponibili sono rappresentate dai dischi gialli e rossi sulla carta.

Puntare il mouse per vedere il nome della stazione.

Clicca sopra per visualizzare le osservazioni e previsioni meteorologiche.

Per cambiare la mappa : fare clic sui pulsanti verdi con una croce nera per ingrandire, il pulsante verde con un trattino per diminuire, o sulla freccia verde per le mappe adiacenti.


METAR-TAF: